User: anonymous   Login
Location: Unspecified
(0.0000°N, 0.0000°E)
Time: 02:17:11
(UTC+00:00)
Language:

SWISSCUBE - Orbit

View from above orbital plane
View from above orbital plane
View from above satellite
View from above satellite

Ground track
Ground track

The orbit data is extracted from the following two-line orbital elements,

1 35932U 09051B   16240.47725482  .00000183  00000-0  52464-4 0  9996
2 35932  98.4573   8.4490 0008874  77.5134 282.7055 14.55859042367580
Epoch (UTC): 27 August 2016 11:27:14
Eccentricity: 0.0008874
inclination: 98.4573°
perigee height: 700 km
apogee height: 713 km
right ascension of ascending node: 8.4490°
argument of perigee: 77.5134°
revolutions per day: 14.55859042
mean anomaly at epoch: 282.7055°
orbit number at epoch: 36758

The dashed part of the orbit path shows where the satellite is in the earth's shadow,  

DLR